This demonstration page uses our WeatherBlox Daily Observations layout. Learn more.

Left ArrowRight Arrow

Hourly Observations for June 22, 2017

Temp ( °F °C ) Dew Point ( °F °C ) Humidity (%) Winds ( mph kmh ) Pressure ( in mb ) Visibility ( mi km ) Precip ( " mm )
12:59 am 00:59 Mostly Cloudy 76 24.4 71 21.7 85 85 SSW 7 11 30.04 1017 10 16 0.00 0.00
1:59 am 01:59 Mostly Cloudy 75 23.9 71 21.7 88 88 SW 8 13 30.04 1017 10 16 0.00 0.00
2:59 am 02:59 Mostly Cloudy 75 23.9 71 21.7 88 88 SW 7 11 30.04 1017 10 16 0.00 0.00
3:59 am 03:59 Partly Cloudy 74 23.3 71 21.7 91 91 SW 8 13 30.04 1017 9 14 0.00 0.00
4:13 am 04:13 Partly Cloudy 74 23.3 71 21.7 91 91 SW 9 15 30.03 1017 8 13 0.00 0.00
4:59 am 04:59 Partly Cloudy 74 23.3 70 21.1 88 88 SW 8 13 30.04 1017 10 16 0.00 0.00
5:59 am 05:59 Partly Cloudy 75 23.9 70 21.1 84 84 WSW 7 11 30.05 1018 10 16 0.00 0.00
6:59 am 06:59 Mostly Cloudy 76 24.4 70 21.1 82 82 SW 7 11 30.05 1018 9 14 0.00 0.00
7:59 am 07:59 Mostly Cloudy 77 25 71 21.7 82 82 WSW 5 7 30.06 1018 9 14 0.00 0.00
8:59 am 08:59 Mostly Cloudy 79 26.1 72 22.2 79 79 WSW 9 15 30.06 1018 10 16 0.00 0.00
9:59 am 09:59 Mostly Cloudy 80 26.7 71 21.7 74 74 WSW 7 11 30.06 1018 9 14 0.00 0.00
10:59 am 10:59 Mostly Cloudy 83 28.3 73 22.8 72 72 SW 6 9 30.05 1018 9 14 0.00 0.00
11:59 am 11:59 Mostly Cloudy 85 29.4 74 23.3 70 70 SSW 8 13 30.05 1018 9 14 0.00 0.00
12:59 pm 12:59 Cloudy 87 30.6 74 23.3 65 65 W 7 11 30.05 1018 8 13 0.00 0.00
1:59 pm 13:59 Cloudy 87 30.6 72 22.2 61 61 W 8 13 30.04 1017 9 14 0.00 0.00
2:59 pm 14:59 Mostly Cloudy 89 31.7 72 22.2 57 57 VRB 7 11 30.03 1017 9 14 0.00 0.00
3:59 pm 15:59 Mostly Cloudy 88 31.1 71 21.7 57 57 WSW 9 15 30.02 1017 10 16 0.00 0.00
4:59 pm 16:59 Mostly Cloudy 88 31.1 70 21.1 55 55 WSW 9 15 30.01 1016 10 16 0.00 0.00
5:59 pm 17:59 Mostly Cloudy 86 30 67 19.4 53 53 WSW 9 15 30.01 1016 10 16 0.00 0.00
6:59 pm 18:59 Mostly Cloudy 85 29.4 71 21.7 63 63 WSW 7 11 30.00 1016 9 14 0.00 0.00
7:59 pm 19:59 Cloudy 84 28.9 73 22.8 70 70 WSW 7 11 29.99 1016 9 14 0.00 0.00
8:59 pm 20:59 Mostly Cloudy 83 28.3 73 22.8 72 72 WSW 8 13 30.00 1016 10 16 0.00 0.00
9:59 pm 21:59 Mostly Cloudy 82 27.8 57 13.9 42 42 SW 7 11 30.01 1016 10 16 0.00 0.00
10:59 pm 22:59 Cloudy 82 27.8 72 22.2 72 72 SW 9 15 30.02 1017 10 16 0.00 0.00
11:59 pm 23:59 Cloudy 81 27.2 71 21.7 72 72 WSW 10 17 30.02 1017 10 16 0.00 0.00

Powered by AerisWeather